User: anonymous   Login
Location: Stigler
(35.2540°N, 95.1230°W)
Time: 18:41:17
(UTC-05:00)
Language:

Cosmos 1805 - Orbit

View from above orbital plane
View from above orbital plane
View from above satellite
View from above satellite

Ground track
Ground track

The orbit data is extracted from the following two-line orbital elements,

1 17191U 86097A   15142.51567054  .00002053  00000-0  12528-3 0  9996
2 17191 082.4719 053.8255 0006175 148.2575 211.9028 15.09813410549385
Epoch (UTC): 22 May 2015 12:22:33
Eccentricity: 0.0006175
inclination: 82.4719°
perigee height: 532 km
apogee height: 541 km
right ascension of ascending node: 53.8255°
argument of perigee: 148.2575°
revolutions per day: 15.09813410
mean anomaly at epoch: 211.9028°
orbit number at epoch: 54938

The dashed part of the orbit path shows where the satellite is in the earth's shadow,  

DLR